Presure
173 161 176 179 196 179 177 178 181 178 186 185 197 178 176 156 181 199 194 210 207 205 203 201 207 205 203 191 192 189 194 194 189 186 199 177 162 170 175 186 186 189 187 191 186 184 188
169 157 190 176 182 181 192 174 194 171 173 176 180 178 177 179 172 170 196 196 189 188 183 171 172 169 165 175 164 168 173 194 156 151 198 167 185 188 188 187 180 179 172 177 175 174 190
153 188 194 166 174 185 178 184 165 189 190 171 186 174 177 157 158 163 171 178 163 196 186 188 198 180 167 184 194 191 185 184 193 185 173 173 168 170 167 168 177 174 167 165 161 171 170
141 159 163 171 182 190 178 185 191 169 182 194 188 156 162 167 167 167 176 170 196 164 195 191 165 166 188 152 149 162 149 166 175 170 160 167 164 164 160 166 178 145 171 164 147 178 183
157 169 178 179 181 189 188 182 180 188 187 184 203 183 183 164 177 179 163 175 167 157 170 170 160 175 173 169 167 148 161 150 134 134 163 144 161 156 155 164 150 152 157 175 177 148 171
157 171 155 172 193 180 185 194 178 160 166 168 227 201 187 188 171 162 135 152 165 167 155 157 173 162 157 161 167 149 176 150 156 172 155 152 150 157 161 158 158 166 167 158 159 156 169
169 151 151 177 169 176 193 195 188 191 200 153 157 225 200 172 180 189 173 198 157 167 167 157 151 155 154 134 153 161 154 152 147 153 158 164 153 154 150 154 154 158 163 164 158 167 148
161 162 160 160 172 157 184 193 166 143 186 192 204 230 232 174 171 169 172 175 172 152 162 159 164 167 169 157 150 152 161 159 164 162 163 162 154 151 151 152 150 161 149 151 159 159 171
160 156 145 158 162 172 200 193 194 167 144 218 171 188 202 212 181 173 185 181 181 169 155 163 163 171 173 162 154 163 157 150 153 151 149 157 155 159 162 163 169 165 162 158 156 157 159
173 135 190 167 170 177 199 192 193 177 171 196 174 168 146 182 198 182 204 218 206 163 172 169 166 160 166 151 163 151 154 159 153 153 152 156 154 153 157 162 169 162 157 160 161 164 169
182 132 182 180 161 168 206 196 183 151 191 194 156 177 179 165 173 170 175 186 196 165 161 154 143 144 145 153 153 155 154 157 161 160 157 160 161 161 150 164 160 159 156 158 161 175 173
160 150 175 175 190 192 195 173 177 162 211 185 153 176 166 170 169 165 160 165 159 152 152 156 153 153 148 147 142 148 151 151 151 153 156 159 162 159 159 160 167 160 162 166 169 157 150
156 170 153 184 191 195 183 179 174 192 168 167 157 163 159 156 144 174 161 151 154 155 157 153 156 152 150 151 155 153 154 153 152 150 158 158 158 159 159 158 160 160 159 156 159 163 162
197 180 172 194 187 185 187 188 179 172 132 135 161 152 153 166 166 158 150 151 151 157 155 161 158 156 156 157 162 159 157 160 160 158 154 153 155 164 166 166 168 169 171 170 170 173 181
159 173 174 191 202 174 194 161 155 141 153 153 169 163 155 154 154 158 169 158 156 162 168 168 152 152 171 162 166 163 160 146 174 172 168 173 164 171 170 174 168 168 175 170 175 169 167
170 197 197 190 206 183 163 167 151 158 149 161 173 151 160 148 145 171 187 185 169 178 169 159 163 161 152 159 177 178 167 167 164 155 169 167 176 174 176 174 168 184 184 185 190 186 182
175 197 191 194 153 152 164 171 147 155 153 170 161 158 172 164 171 179 161 173 178 183 169 181 177 174 184 166 189 187 177 174 175 174 170 174 176 189 194 187 184 202 204 217 184 192 208
174 195 126 136 156 175 158 156 179 175 186 180 181 182 176 173 173 184 183 179 174 183 192 168 175 191 182 176 192 200 198 208 228 203 201 207 214 190 236 215 215 230 207 236 234 204 213
195 124 143 174 165 167 183 180 173 174 173 179 184 177 179 174 179 194 196 179 208 210 197 212 213 221 220 229 247 262 214 255 246 229 240 186 203 269 247 222 230 255 253 244 240 248 246
169 190 168 168 173 182 174 178 186 180 193 178 182 185 197 214 208 204 193 237 225 238 259 241 258 276 231 274 274 273 280 276 268 265 252 235 262 264 260 258 258 255 255 249 248 252 250
166 176 168 184 181 173 187 191 181 178 171 202 208 199 204 183 219 227 234 242 285 308 311 308 293 298 294 291 291 281 281 277 275 261 248 253 265 264 262 262 263 266 266 270 266 268 269
163 180 171 181 172 193 183 188 184 198 206 193 207 225 223 228 244 328 236 342 335 339 470 447 458 467 464 465 431 464 413 403 388 384 373 362 346 349 326 338 338 336 338 332 320 310 331
174 167 186 200 170 192 183 176 199 193 204 213 213 212 260 225 355 448 437 470 447 448 437 427 425 432 436 439 454 422 407 409 393 371 366 361 349 343 343 332 333 337 319 322 322 314 306
183 183 180 188 198 178 188 206 205 226 230 242 236 226 321 518 517 483 444 424 434 436 402 402 400 399 394 413 413 404 401 399 399 378 361 359 349 341 332 330 326 327 322 314 302 301 295
175 187 182 198 197 179 209 189 214 220 220 242 249 377 476 525 504 494 437 415 390 382 379 381 374 379 384 377 389 390 406 400 391 374 356 360 356 352 331 323 327 326 320 312 311 308 299
194 186 192 187 203 190 218 192 216 232 237 253 328 430 411 322 312 306 430 409 409 401 399 382 369 371 382 378 381 369 376 372 355 360 380 377 372 373 379 364 342 333 322 314 310 310 304
205 185 192 191 221 201 225 210 215 224 244 283 417 344 319 305 310 308 411 398 384 373 379 412 398 363 362 363 361 346 340 335 321 332 338 339 351 347 345 347 354 357 338 347 328 313 307
190 183 206 210 216 216 215 209 225 246 231 367 341 315 301 292 298 299 296 392 365 371 365 378 377 366 370 344 346 339 338 329 329 331 335 349 333 343 351 342 348 337 340 333 330 327 325
188 213 207 215 220 199 228 244 227 259 303 339 320 298 294 291 292 291 294 290 385 375 369 351 351 352 351 329 332 332 342 334 322 325 331 318 337 341 337 328 327 332 330 326 325 322 322
Wind_Speed
32 22 25 24 33 18 15 14 16 15 15 14 15 22 25 31 25 28 31 32 33 33 33 33 34 36 37 42 45 47 47 47 49 50 37 54 60 54 51 51 47 45 47 45 50 46 43
35 19 32 28 27 25 27 21 31 15 20 18 17 17 19 20 26 33 27 30 31 33 33 38 40 42 45 43 49 49 49 35 54 57 34 57 39 39 40 44 47 47 50 51 53 48 43
23 40 37 30 32 30 24 28 19 34 31 20 28 21 25 32 31 30 26 26 30 28 31 33 27 40 44 37 32 31 34 35 29 32 43 42 49 48 51 53 51 46 51 54 53 53 47
21 34 31 34 41 38 32 37 38 23 29 32 35 30 23 25 27 25 27 26 31 29 26 27 35 37 29 47 49 44 51 42 37 42 50 50 51 51 55 56 50 56 55 58 54 58 53
36 46 44 45 42 42 41 33 33 31 34 32 37 31 33 34 33 31 28 31 31 35 31 32 40 32 38 40 43 55 45 52 60 61 49 55 53 54 59 62 56 59 58 56 57 51 53
40 45 40 44 43 42 43 44 32 26 26 26 41 38 34 36 31 36 50 33 33 36 36 36 38 39 43 45 43 56 44 57 49 49 56 60 59 59 68 63 63 62 61 65 62 62 59
48 38 36 46 45 46 46 45 42 42 35 29 30 42 39 32 34 41 34 41 36 41 42 39 42 47 46 58 50 50 53 55 56 59 62 60 61 68 69 66 66 70 68 66 70 67 54
47 52 51 46 49 38 46 44 36 36 38 39 32 28 39 31 35 38 39 42 43 41 49 41 47 55 58 52 56 55 60 61 62 64 67 67 69 72 70 71 68 76 65 70 73 70 69
50 51 35 54 45 49 52 46 45 36 41 35 37 34 33 37 40 42 48 47 50 44 47 56 53 53 55 57 58 60 63 66 68 70 70 74 76 75 78 79 76 77 78 78 75 74 76
55 35 48 52 55 51 55 49 47 41 44 37 36 41 42 36 33 39 38 42 46 51 47 56 61 61 62 63 62 66 69 69 74 76 78 77 81 80 81 84 82 82 79 81 83 83 83
51 36 52 51 56 55 56 52 46 47 50 44 41 39 39 45 43 42 41 39 40 52 51 59 65 66 68 71 73 74 77 77 79 79 81 82 83 85 80 90 88 87 83 85 87 90 87
61 46 52 53 54 57 51 41 43 48 41 44 48 39 47 42 43 48 53 49 54 63 63 64 68 70 71 73 70 77 81 84 86 85 87 91 92 91 92 94 96 91 96 97 97 81 55
62 60 59 55 54 56 46 45 44 49 45 48 54 48 54 55 54 48 57 66 65 69 70 74 76 78 79 83 85 85 85 87 87 83 94 92 93 93 94 92 95 94 94 85 89 98 87
63 61 59 59 51 50 52 48 44 43 52 60 56 62 62 56 60 69 74 77 80 80 82 83 85 86 88 89 92 92 92 96 99 95 83 86 88 102 106 106 107 109 110 108 107 107 107
57 63 63 55 69 56 51 46 50 60 58 62 61 68 72 75 77 79 74 83 88 89 88 91 82 89 96 98 102 95 98 68 108 113 109 110 99 106 111 115 114 112 116 114 116 108 97
69 62 68 56 73 60 48 50 54 57 68 63 64 82 79 80 81 83 81 82 94 91 99 98 103 100 86 80 108 110 105 100 93 94 106 108 108 114 117 116 114 120 119 121 119 121 118
65 70 63 68 59 61 58 53 74 68 72 67 74 82 80 89 90 92 100 96 92 101 109 108 108 113 115 106 109 103 115 115 117 111 118 121 120 120 120 122 123 120 117 120 123 120 117
67 66 50 67 62 62 67 74 71 70 74 74 73 76 83 89 93 97 100 100 110 112 119 108 115 120 120 116 122 121 121 122 122 125 126 124 123 118 120 122 122 121 122 114 120 120 123
73 52 63 61 60 66 77 75 75 79 83 81 82 87 91 98 105 108 113 115 122 122 123 124 127 126 125 124 122 118 124 118 121 123 124 121 124 116 118 122 120 115 113 115 118 117 117
59 72 62 67 76 84 80 85 86 89 94 94 99 101 106 118 117 117 116 126 126 125 125 128 126 128 124 124 124 123 120 119 119 118 120 127 120 119 116 118 114 114 115 115 118 120 121
60 73 68 85 87 87 91 91 92 95 100 120 119 118 124 111 125 126 125 126 126 131 133 132 128 130 128 128 125 122 123 120 119 118 120 123 125 124 120 122 119 120 119 118 116 118 119
64 83 80 88 84 92 92 96 101 120 119 118 124 133 130 127 129 132 123 128 130 130 43 63 56 47 51 53 65 63 72 76 90 86 90 91 101 97 112 101 98 95 94 91 92 96 83
80 79 96 97 92 101 96 101 118 117 123 127 128 129 137 131 125 73 83 41 54 40 44 53 57 55 49 48 38 56 64 66 68 78 79 78 83 85 84 87 85 83 84 83 80 81 84
96 95 91 100 101 96 110 119 121 133 134 138 134 133 133 47 34 33 44 44 34 31 52 42 45 50 51 40 44 48 50 53 53 65 73 70 72 75 76 78 80 77 76 79 83 83 83
86 96 96 109 101 104 120 114 130 132 130 147 144 104 58 40 34 30 31 30 46 52 49 50 48 50 41 39 36 36 24 30 36 44 58 63 65 67 73 76 78 74 73 76 77 76 77
102 100 103 102 118 111 128 118 128 132 138 153 122 66 66 78 76 73 22 33 36 40 37 41 41 43 32 28 25 22 13 20 28 36 33 34 38 42 38 53 69 72 73 74 74 74 75
104 97 110 114 129 121 132 124 129 129 143 138 62 76 77 76 75 71 23 24 32 34 35 30 24 27 26 17 12 13 18 25 38 40 39 39 34 38 43 45 41 47 55 51 67 69 72
97 106 129 121 128 124 124 123 136 142 120 72 74 77 75 74 72 69 66 31 34 36 29 24 21 21 14 13 15 19 22 24 32 39 38 31 32 30 31 36 37 39 41 48 50 53 55
107 129 116 127 135 117 144 154 133 146 89 74 74 75 75 73 69 67 63 60 21 19 16 15 13 11 9 13 14 13 17 25 28 32 32 29 29 24 25 29 31 33 36 38 40 45 49
Wind_Direction
4 349 1 3 356 353 358 344 328 297 315 297 310 275 270 259 276 269 268 268 270 270 268 269 270 270 270 271 272 275 275 277 278 277 276 279 279 280 281 281 284 287 292 298 297 299 302
356 341 354 354 349 348 347 333 332 301 299 282 282 267 273 273 273 269 274 270 271 270 272 271 273 272 271 275 274 278 279 275 274 275 277 277 279 282 286 287 284 290 290 294 296 297 303
343 355 355 342 344 341 330 332 299 331 302 285 293 282 270 264 268 268 270 286 266 276 277 278 267 276 271 272 272 275 277 281 280 282 280 281 282 285 285 287 290 293 291 289 288 298 297
315 346 336 343 347 341 333 332 328 302 309 299 291 266 272 276 273 271 284 281 277 272 273 264 279 278 278 262 266 275 274 276 276 278 278 280 283 286 285 287 291 286 294 292 286 296 296
342 344 344 342 340 339 343 333 319 311 305 310 279 285 277 274 283 285 274 286 272 262 284 286 276 284 284 281 275 268 274 277 280 280 283 282 286 284 283 285 287 286 289 293 295 285 294
341 337 339 338 342 337 337 337 328 304 310 312 273 268 278 274 284 278 275 269 281 282 264 270 282 282 273 281 279 271 275 271 280 277 280 279 278 283 281 285 286 288 288 289 291 292 295
328 332 337 333 332 333 334 331 333 327 312 291 293 266 272 284 287 277 285 266 276 286 280 275 271 281 276 276 277 278 279 278 272 279 279 281 277 279 282 286 286 286 285 286 287 287 292
326 324 326 331 326 323 329 329 308 296 313 311 313 301 273 283 284 282 284 280 274 270 281 272 279 275 273 271 275 277 276 276 276 275 276 276 278 279 283 285 285 283 287 287 286 289 287
319 325 322 323 321 326 328 323 322 299 298 316 306 301 288 272 280 282 277 280 274 273 273 278 276 273 274 274 279 273 274 277 277 278 280 279 279 280 280 281 282 282 284 286 288 289 289
314 306 321 318 316 324 326 325 325 317 310 305 298 297 295 292 289 286 285 284 279 278 275 276 277 279 279 278 273 274 272 273 275 277 279 278 280 280 280 279 279 281 284 283 284 284 283
314 303 316 316 316 316 324 323 321 296 312 307 296 294 288 293 289 283 282 282 282 274 277 275 279 281 282 278 279 278 279 279 277 277 279 277 276 278 287 280 283 283 286 286 287 283 284
315 307 314 316 330 329 324 313 316 301 308 301 299 294 289 284 280 281 282 273 272 277 273 268 269 269 278 279 287 282 279 280 281 282 280 278 275 279 281 282 280 284 283 283 282 289 284
310 311 316 319 326 328 318 316 315 313 306 301 299 292 291 295 286 278 274 281 276 272 269 272 270 275 279 280 275 281 281 281 285 289 276 278 280 280 282 286 286 288 288 289 288 285 290
313 309 311 319 324 321 318 313 309 308 296 300 287 290 286 283 277 278 285 282 282 273 275 264 269 272 272 273 269 276 281 275 275 280 292 293 288 277 277 280 279 278 279 281 282 282 279
316 312 313 317 318 315 318 301 295 296 293 291 288 283 284 283 283 278 276 276 279 271 264 267 285 291 263 272 271 273 282 293 266 268 275 272 283 276 277 273 280 283 277 282 281 285 286
312 311 313 320 316 314 301 296 296 290 289 284 293 290 283 291 295 285 289 280 267 268 268 281 274 281 287 283 268 267 279 281 288 297 283 289 285 280 276 277 282 273 275 276 275 277 279
313 310 318 315 299 297 302 300 293 287 286 287 288 287 281 278 285 291 283 279 283 278 274 269 269 275 268 285 271 279 273 277 277 283 287 284 282 273 273 273 275 276 276 276 274 275 276
307 317 298 303 291 310 287 292 303 296 302 292 290 290 278 275 278 287 284 280 274 275 278 292 285 277 276 285 271 272 272 275 278 273 275 276 276 276 272 274 274 274 275 274 273 274 274
312 300 306 314 298 297 313 309 298 296 290 290 291 280 278 273 279 285 283 284 286 283 276 277 277 278 280 280 282 280 276 277 277 276 274 279 278 276 272 270 272 274 272 271 271 272 271
312 317 308 309 315 316 308 304 306 298 307 290 289 284 292 301 293 284 274 295 289 291 291 287 288 287 281 282 280 280 279 277 275 275 274 275 277 276 275 273 272 270 269 267 268 268 268
307 320 311 321 315 306 308 310 300 295 290 307 307 298 297 294 295 295 297 298 293 293 289 288 286 283 280 279 278 277 275 274 273 271 271 273 273 272 271 271 272 272 269 268 268 268 269
303 320 315 314 303 312 303 306 302 311 310 299 302 308 300 300 303 303 298 293 288 286 281 283 284 282 277 272 268 279 267 270 276 274 273 273 276 274 276 275 276 274 274 275 275 274 272
316 308 314 314 299 312 304 298 310 302 304 305 301 300 311 303 302 295 298 300 293 293 288 283 284 285 286 285 277 268 266 266 263 264 266 264 267 270 269 271 270 268 271 271 270 270 270
317 312 309 310 315 300 308 313 311 317 318 317 312 307 310 307 292 286 293 289 302 310 290 288 293 289 290 289 282 275 272 272 269 264 265 262 260 261 263 264 265 266 265 266 267 267 268
309 311 305 317 314 298 316 304 317 315 311 320 316 317 315 307 303 282 274 279 283 290 292 294 292 298 300 297 297 297 282 271 269 268 267 268 264 262 258 260 260 261 260 260 262 262 264
315 307 312 307 316 306 316 303 315 319 318 323 320 320 320 317 316 316 261 285 288 283 297 286 295 296 304 297 303 300 282 270 272 274 266 275 275 274 269 267 263 261 260 260 260 260 261
314 304 314 309 316 309 321 311 314 314 323 322 324 319 320 321 321 322 320 309 307 312 318 306 290 285 298 309 297 272 263 257 268 275 273 274 280 274 268 267 263 266 266 264 264 262 261
310 307 316 314 319 315 314 308 319 326 320 321 321 322 321 321 323 324 324 306 320 312 312 311 300 291 266 274 283 273 269 263 263 271 280 286 279 278 268 265 266 266 263 262 261 261 259
310 315 313 321 323 308 322 322 320 323 319 321 323 323 323 323 323 324 324 325 311 316 320 332 328 310 295 276 277 271 272 263 280 285 286 282 294 282 267 264 260 260 262 262 260 258 258